This is the latest recevied weather packets stored in our database for station/object DO3HUM-5. If no packets are shown the sender has not sent any weather packets the latest 10 day(s).
| Time | Temp. | Humidity | Pressure | Rain* | Wind** | Luminosity | Snow |
|---|---|---|---|---|---|---|---|
| 1777673415 | 8.33° C | 82% | 1032.4 hPa | 0 mm | - | - | - |
| 1777672873 | 8.33° C | 81% | 1032.3 hPa | 0 mm | - | - | - |
| 1777672272 | 8.89° C | 80% | 1032.4 hPa | 0 mm | - | - | - |
| 1777671667 | 9.44° C | 79% | 1032.4 hPa | 0 mm | - | - | - |
| 1777671065 | 9.44° C | 77% | 1032.4 hPa | 0 mm | - | - | - |
| 1777670461 | 10° C | 77% | 1032.4 hPa | 0 mm | - | - | - |
| 1777669859 | 9.44° C | 76% | 1032.4 hPa | 0 mm | - | - | - |
| 1777669256 | 10° C | 76% | 1032.6 hPa | 0 mm | - | - | - |
| 1777668651 | 10.56° C | 74% | 1032.5 hPa | 0 mm | - | - | - |
| 1777668046 | 11.11° C | 73% | 1032.5 hPa | 0 mm | - | - | - |
| 1777667446 | 11.11° C | 74% | 1032.6 hPa | 0 mm | - | - | - |
| 1777666841 | 11.11° C | 73% | 1032.7 hPa | 0 mm | - | - | - |
| 1777666240 | 11.67° C | 72% | 1032.8 hPa | 0 mm | - | - | - |
| 1777665635 | 12.22° C | 70% | 1032.7 hPa | 0 mm | - | - | - |
| 1777665032 | 12.22° C | 70% | 1032.7 hPa | 0 mm | - | - | - |
| 1777664430 | 12.22° C | 69% | 1032.6 hPa | 0 mm | - | - | - |
| 1777663826 | 12.78° C | 69% | 1032.6 hPa | 0 mm | - | - | - |
| 1777663223 | 13.89° C | 66% | 1032.8 hPa | 0 mm | - | - | - |
| 1777662621 | 14.44° C | 64% | 1032.8 hPa | 0 mm | - | - | - |
| 1777662018 | 15° C | 63% | 1032.8 hPa | 0 mm | - | - | - |
| 1777661415 | 15.56° C | 58% | 1032.9 hPa | 0 mm | - | - | - |
| 1777660874 | 16.11° C | 56% | 1032.7 hPa | 0 mm | - | - | - |
| 1777660271 | 17.22° C | 52% | 1032.7 hPa | 0 mm | - | - | - |
| 1777659667 | 17.78° C | 51% | 1032.6 hPa | 0 mm | - | - | - |
| 1777659064 | 18.89° C | 48% | 1032.5 hPa | 0 mm | - | - | - |
* Rain latest hour (hover to see other rain measurements)
** Current wind speed in m/s (hover to see current wind gust speed)